Rickenbacker International (LCK)

 

Airport Diagram
Current Weather/Forecast (VFR Conditions)
METAR KLCK 182355Z AUTO 28006KT 10SM CLR 14/M04 A2985 RMK AO2 T01361041 10173 20136
TAF KLCK 182338Z 1900/1924 26006KT P6SM SKC FM190200 00000KT P6SM SCT250 FM191500 23006KT P6SM FEW250 FM191800 25012KT P6SM SCT060

Airport Information

All Charts
General
Chart Name View
AIRPORT DIAGRAM
AIRPORT DIAGRAM
ALTERNATE MINIMUMS
ALTERNATE MINIMUMS

Departures
Chart Name Download
LOCKBOURNE FIVE
LOCKBOURNE FIVE

Arrivals
Chart Name Download
BREMN FIVE
BREMN FIVE, CONT.1
GAILL THREE (RNAV)
GUNNE FOUR
GUNNE FOUR, CONT.1
BREMN FIVE
BREMN FIVE, CONT.1
GAILL THREE (RNAV)
GUNNE FOUR
GUNNE FOUR, CONT.1

Approaches
Chart Name Download
ILS OR LOC RWY 05L
ILS OR LOC RWY 05R
ILS OR LOC RWY 23L
ILS RWY 05R (SA CAT I)
ILS RWY 05R (CAT II)
RNAV (GPS) RWY 05L
RNAV (GPS) RWY 05R
RNAV (GPS) RWY 23L
RNAV (GPS) RWY 23R
ILS OR LOC RWY 05L
ILS OR LOC RWY 05R
ILS OR LOC RWY 23L
ILS RWY 05R (SA CAT I)
ILS RWY 05R (CAT II)
RNAV (GPS) RWY 05L
RNAV (GPS) RWY 05R
RNAV (GPS) RWY 23L
RNAV (GPS) RWY 23R


Airport Statistics
Departures Arrivals Local
All Collected Stats since June 2016: 244 234 14
2021 Stats: 60 74 0
April Stats: 3 15 0

Inbound Traffic (Arrivals) - 0

No inbound traffic.


Outbound Traffic (Departures) - 0

No outbound traffic.


Local Traffic (Pattern) - 0

No local traffic.